Time,TemperatureF,DewpointF,PressureIn,WindDirection,WindDirectionDegrees,WindSpeedMPH,WindSpeedGustMPH,Humidity,HourlyPrecipIn,Conditions,Clouds,dailyrainin,SoftwareType,DateUTC
2013-07-13 00:02:00,60.5,45.2,29.88,WNW,290,1.0,1.0,57,0.00,,,0.00,LWC V2.00 B2112,2013-07-13 08:02:00,
2013-07-13 00:07:00,60.3,45.0,29.88,WNW,290,1.0,1.0,57,0.00,,,0.00,LWC V2.00 B2112,2013-07-13 08:07:00,
2013-07-13 00:12:00,59.9,45.1,29.88,WNW,290,1.0,1.0,58,0.00,,,0.00,LWC V2.00 B2112,2013-07-13 08:12:00,
2013-07-13 00:17:00,59.8,44.5,29.88,WNW,290,1.0,1.0,57,0.00,,,0.00,LWC V2.00 B2112,2013-07-13 08:17:00,
2013-07-13 00:22:00,59.5,45.6,29.89,WNW,290,1.0,1.0,60,0.00,,,0.00,LWC V2.00 B2112,2013-07-13 08:22:00,
2013-07-13 00:27:00,59.2,44.9,29.89,WNW,289,1.0,1.0,59,0.00,,,0.00,LWC V2.00 B2112,2013-07-13 08:27:00,
2013-07-13 00:32:00,59.3,45.0,29.89,WNW,290,0.0,1.0,59,0.00,,,0.00,LWC V2.00 B2112,2013-07-13 08:32:00,
2013-07-13 00:37:00,59.2,44.4,29.89,WNW,289,1.0,1.0,58,0.00,,,0.00,LWC V2.00 B2112,2013-07-13 08:37:00,
2013-07-13 00:42:00,59.3,44.5,29.89,WNW,290,1.0,1.0,58,0.00,,,0.00,LWC V2.00 B2112,2013-07-13 08:42:00,
2013-07-13 00:47:00,59.1,42.9,29.89,WNW,290,1.0,1.0,55,0.00,,,0.00,LWC V2.00 B2112,2013-07-13 08:47:00,
2013-07-13 00:52:00,58.8,44.1,29.89,WNW,290,1.0,1.0,58,0.00,,,0.00,LWC V2.00 B2112,2013-07-13 08:52:00,
2013-07-13 00:57:00,58.6,44.8,29.89,WNW,290,1.0,1.0,60,0.00,,,0.00,LWC V2.00 B2112,2013-07-13 08:57:00,
2013-07-13 01:02:00,58.4,43.7,29.89,WNW,289,1.0,1.0,58,0.00,,,0.00,LWC V2.00 B2112,2013-07-13 09:02:00,
2013-07-13 01:07:00,58.3,45.3,29.89,WNW,290,1.0,1.0,62,0.00,,,0.00,LWC V2.00 B2112,2013-07-13 09:07:00,
2013-07-13 01:12:00,58.2,43.5,29.89,WNW,284,1.0,1.0,58,0.00,,,0.00,LWC V2.00 B2112,2013-07-13 09:12:00,
2013-07-13 01:17:00,58.0,45.5,29.89,WNW,284,0.0,1.0,63,0.00,,,0.00,LWC V2.00 B2112,2013-07-13 09:17:00,
2013-07-13 01:22:00,57.7,45.2,29.89,WNW,284,0.0,0.0,63,0.00,,,0.00,LWC V2.00 B2112,2013-07-13 09:22:00,
2013-07-13 01:27:00,57.5,45.4,29.89,WNW,284,0.0,0.0,64,0.00,,,0.00,LWC V2.00 B2112,2013-07-13 09:27:00,
2013-07-13 01:32:00,57.1,44.6,29.89,WNW,284,0.0,0.0,63,0.00,,,0.00,LWC V2.00 B2112,2013-07-13 09:32:00,
2013-07-13 01:37:00,57.0,44.1,29.89,WNW,284,0.0,0.0,62,0.00,,,0.00,LWC V2.00 B2112,2013-07-13 09:37:00,
2013-07-13 01:42:00,56.8,46.0,29.89,WNW,284,0.0,0.0,67,0.00,,,0.00,LWC V2.00 B2112,2013-07-13 09:42:00,
2013-07-13 01:47:00,56.5,44.1,29.89,WNW,284,0.0,0.0,63,0.00,,,0.00,LWC V2.00 B2112,2013-07-13 09:47:00,
2013-07-13 01:52:00,56.3,44.3,29.89,WNW,284,0.0,0.0,64,0.00,,,0.00,LWC V2.00 B2112,2013-07-13 09:52:00,
2013-07-13 01:57:00,55.9,44.7,29.89,WNW,284,0.0,0.0,66,0.00,,,0.00,LWC V2.00 B2112,2013-07-13 09:57:00,
2013-07-13 02:02:00,55.8,44.2,29.89,WNW,284,0.0,0.0,65,0.00,,,0.00,LWC V2.00 B2112,2013-07-13 10:02:00,
2013-07-13 02:07:00,56.0,41.9,29.89,WNW,284,1.0,1.0,59,0.00,,,0.00,LWC V2.00 B2112,2013-07-13 10:07:00,
2013-07-13 02:12:00,55.7,44.1,29.89,WNW,284,0.0,1.0,65,0.00,,,0.00,LWC V2.00 B2112,2013-07-13 10:12:00,
2013-07-13 02:17:00,55.5,43.5,29.89,WNW,284,1.0,1.0,64,0.00,,,0.00,LWC V2.00 B2112,2013-07-13 10:17:00,
2013-07-13 02:22:00,55.5,44.7,29.89,WNW,284,0.0,1.0,67,0.00,,,0.00,LWC V2.00 B2112,2013-07-13 10:22:00,
2013-07-13 02:27:00,55.3,43.7,29.89,WNW,284,1.0,1.0,65,0.00,,,0.00,LWC V2.00 B2112,2013-07-13 10:27:00,
2013-07-13 02:32:00,55.5,44.3,29.89,WNW,284,0.0,1.0,66,0.00,,,0.00,LWC V2.00 B2112,2013-07-13 10:32:00,
2013-07-13 02:37:00,55.2,44.0,29.89,WNW,284,0.0,0.0,66,0.00,,,0.00,LWC V2.00 B2112,2013-07-13 10:37:00,
2013-07-13 02:42:00,55.0,43.9,29.89,WNW,284,0.0,1.0,66,0.00,,,0.00,LWC V2.00 B2112,2013-07-13 10:42:00,
2013-07-13 02:47:00,55.0,43.9,29.90,WNW,284,0.0,1.0,66,0.00,,,0.00,LWC V2.00 B2112,2013-07-13 10:47:00,
2013-07-13 02:52:00,54.9,43.8,29.90,WNW,284,0.0,1.0,66,0.00,,,0.00,LWC V2.00 B2112,2013-07-13 10:52:00,
2013-07-13 02:57:00,54.9,44.9,29.90,WNW,284,0.0,1.0,69,0.00,,,0.00,LWC V2.00 B2112,2013-07-13 10:57:00,
2013-07-13 03:02:00,54.8,44.8,29.90,WNW,284,0.0,1.0,69,0.00,,,0.00,LWC V2.00 B2112,2013-07-13 11:02:00,
2013-07-13 03:07:00,54.7,44.3,29.89,WNW,284,0.0,1.0,68,0.00,,,0.00,LWC V2.00 B2112,2013-07-13 11:07:00,
2013-07-13 03:12:00,54.5,44.5,29.89,WNW,284,0.0,1.0,69,0.00,,,0.00,LWC V2.00 B2112,2013-07-13 11:12:00,
2013-07-13 03:17:00,54.4,44.1,29.89,WNW,284,0.0,1.0,68,0.00,,,0.00,LWC V2.00 B2112,2013-07-13 11:17:00,
2013-07-13 03:22:00,54.2,43.9,29.89,WNW,284,0.0,1.0,68,0.00,,,0.00,LWC V2.00 B2112,2013-07-13 11:22:00,
2013-07-13 03:27:00,54.1,44.2,29.89,WNW,284,0.0,1.0,69,0.00,,,0.00,LWC V2.00 B2112,2013-07-13 11:27:00,
2013-07-13 03:32:00,53.9,44.7,29.89,WNW,284,0.0,1.0,71,0.00,,,0.00,LWC V2.00 B2112,2013-07-13 11:32:00,
2013-07-13 03:42:00,53.4,45.0,29.89,WNW,284,0.0,0.0,73,0.00,,,0.00,LWC V2.00 B2112,2013-07-13 11:42:00,
2013-07-13 03:47:00,53.1,44.7,29.90,WNW,284,0.0,0.0,73,0.00,,,0.00,LWC V2.00 B2112,2013-07-13 11:47:00,
2013-07-13 03:52:00,53.0,44.6,29.90,WNW,284,0.0,0.0,73,0.00,,,0.00,LWC V2.00 B2112,2013-07-13 11:52:00,
2013-07-13 03:57:00,52.8,44.4,29.89,WNW,284,0.0,0.0,73,0.00,,,0.00,LWC V2.00 B2112,2013-07-13 11:57:00,
2013-07-13 04:02:00,52.5,43.4,29.90,WNW,284,0.0,0.0,71,0.00,,,0.00,LWC V2.00 B2112,2013-07-13 12:02:00,
2013-07-13 04:07:00,52.3,43.9,29.89,WNW,284,0.0,0.0,73,0.00,,,0.00,LWC V2.00 B2112,2013-07-13 12:07:00,
2013-07-13 04:12:00,52.0,44.0,29.89,WNW,284,0.0,0.0,74,0.00,,,0.00,LWC V2.00 B2112,2013-07-13 12:12:00,
2013-07-13 04:17:00,51.8,42.7,29.89,WNW,284,0.0,0.0,71,0.00,,,0.00,LWC V2.00 B2112,2013-07-13 12:17:00,
2013-07-13 04:22:00,51.8,44.5,29.90,WNW,284,0.0,0.0,76,0.00,,,0.00,LWC V2.00 B2112,2013-07-13 12:22:00,
2013-07-13 04:27:00,51.7,44.4,29.89,WNW,284,0.0,0.0,76,0.00,,,0.00,LWC V2.00 B2112,2013-07-13 12:27:00,
2013-07-13 04:32:00,51.8,43.8,29.90,WNW,284,0.0,0.0,74,0.00,,,0.00,LWC V2.00 B2112,2013-07-13 12:32:00,
2013-07-13 04:37:00,51.7,44.0,29.90,WNW,284,0.0,0.0,75,0.00,,,0.00,LWC V2.00 B2112,2013-07-13 12:37:00,
2013-07-13 04:42:00,51.5,43.1,29.90,WNW,284,0.0,0.0,73,0.00,,,0.00,LWC V2.00 B2112,2013-07-13 12:42:00,
2013-07-13 04:47:00,51.5,43.1,29.90,WNW,284,0.0,0.0,73,0.00,,,0.00,LWC V2.00 B2112,2013-07-13 12:47:00,
2013-07-13 04:52:00,51.4,42.7,29.90,WNW,284,0.0,0.0,72,0.00,,,0.00,LWC V2.00 B2112,2013-07-13 12:52:00,
2013-07-13 04:57:00,51.4,42.7,29.90,WNW,284,0.0,0.0,72,0.00,,,0.00,LWC V2.00 B2112,2013-07-13 12:57:00,
2013-07-13 05:02:00,51.5,44.5,29.90,WNW,284,0.0,0.0,77,0.00,,,0.00,LWC V2.00 B2112,2013-07-13 13:02:00,
2013-07-13 05:07:00,51.4,44.8,29.90,WNW,284,0.0,0.0,78,0.00,,,0.00,LWC V2.00 B2112,2013-07-13 13:07:00,
2013-07-13 05:12:00,51.4,45.1,29.90,WNW,284,0.0,0.0,79,0.00,,,0.00,LWC V2.00 B2112,2013-07-13 13:12:00,
2013-07-13 05:17:00,51.4,45.1,29.90,WNW,284,0.0,0.0,79,0.00,,,0.00,LWC V2.00 B2112,2013-07-13 13:17:00,
2013-07-13 05:22:00,51.4,45.4,29.90,WNW,284,0.0,0.0,80,0.00,,,0.00,LWC V2.00 B2112,2013-07-13 13:22:00,
2013-07-13 05:27:00,51.4,43.7,29.90,WNW,284,0.0,0.0,75,0.00,,,0.00,LWC V2.00 B2112,2013-07-13 13:27:00,
2013-07-13 05:32:00,51.4,44.8,29.90,WNW,284,0.0,0.0,78,0.00,,,0.00,LWC V2.00 B2112,2013-07-13 13:32:00,
2013-07-13 05:37:00,51.4,44.4,29.90,WNW,284,0.0,0.0,77,0.00,,,0.00,LWC V2.00 B2112,2013-07-13 13:37:00,
2013-07-13 05:42:00,51.5,44.2,29.91,WNW,284,0.0,0.0,76,0.00,,,0.00,LWC V2.00 B2112,2013-07-13 13:42:00,
2013-07-13 05:47:00,51.5,44.2,29.91,WNW,284,0.0,0.0,76,0.00,,,0.00,LWC V2.00 B2112,2013-07-13 13:47:00,
2013-07-13 05:52:00,51.7,45.1,29.91,WNW,284,0.0,0.0,78,0.00,,,0.00,LWC V2.00 B2112,2013-07-13 13:52:00,
2013-07-13 05:57:00,51.8,44.8,29.91,WNW,284,0.0,0.0,77,0.00,,,0.00,LWC V2.00 B2112,2013-07-13 13:57:00,
2013-07-13 06:02:00,52.1,44.8,29.91,WNW,284,0.0,0.0,76,0.00,,,0.00,LWC V2.00 B2112,2013-07-13 14:02:00,
2013-07-13 06:07:00,52.3,45.6,29.91,WNW,284,0.0,0.0,78,0.00,,,0.00,LWC V2.00 B2112,2013-07-13 14:07:00,
2013-07-13 06:12:00,52.5,45.5,29.91,WNW,284,0.0,0.0,77,0.00,,,0.00,LWC V2.00 B2112,2013-07-13 14:12:00,
2013-07-13 06:17:00,52.7,45.0,29.91,WNW,284,0.0,0.0,75,0.00,,,0.00,LWC V2.00 B2112,2013-07-13 14:17:00,
2013-07-13 06:22:00,52.7,44.3,29.91,WNW,284,0.0,0.0,73,0.00,,,0.00,LWC V2.00 B2112,2013-07-13 14:22:00,
2013-07-13 06:27:00,52.7,46.4,29.91,WNW,284,0.0,0.0,79,0.00,,,0.00,LWC V2.00 B2112,2013-07-13 14:27:00,
2013-07-13 06:32:00,52.6,45.3,29.91,WNW,284,0.0,0.0,76,0.00,,,0.00,LWC V2.00 B2112,2013-07-13 14:32:00,
2013-07-13 06:37:00,52.7,45.7,29.91,WNW,284,0.0,0.0,77,0.00,,,0.00,LWC V2.00 B2112,2013-07-13 14:37:00,
2013-07-13 06:42:00,52.7,43.9,29.91,WNW,284,0.0,0.0,72,0.00,,,0.00,LWC V2.00 B2112,2013-07-13 14:42:00,
2013-07-13 06:47:00,52.9,44.1,29.91,WNW,284,0.0,0.0,72,0.00,,,0.00,LWC V2.00 B2112,2013-07-13 14:47:00,
2013-07-13 06:52:00,53.2,44.4,29.91,WNW,284,0.0,0.0,72,0.00,,,0.00,LWC V2.00 B2112,2013-07-13 14:52:00,
2013-07-13 06:57:00,53.6,45.5,29.91,WNW,284,0.0,0.0,74,0.00,,,0.00,LWC V2.00 B2112,2013-07-13 14:57:00,
2013-07-13 07:02:00,53.8,45.3,29.91,WNW,284,0.0,0.0,73,0.00,,,0.00,LWC V2.00 B2112,2013-07-13 15:02:00,
2013-07-13 07:07:00,53.9,45.4,29.91,WNW,284,0.0,0.0,73,0.00,,,0.00,LWC V2.00 B2112,2013-07-13 15:07:00,
2013-07-13 07:12:00,54.1,44.5,29.91,WNW,284,0.0,0.0,70,0.00,,,0.00,LWC V2.00 B2112,2013-07-13 15:12:00,
2013-07-13 07:17:00,54.3,46.5,29.91,WNW,284,0.0,0.0,75,0.00,,,0.00,LWC V2.00 B2112,2013-07-13 15:17:00,
2013-07-13 07:22:00,54.5,46.0,29.91,WNW,284,0.0,0.0,73,0.00,,,0.00,LWC V2.00 B2112,2013-07-13 15:22:00,
2013-07-13 07:27:00,54.7,45.1,29.91,WNW,284,0.0,0.0,70,0.00,,,0.00,LWC V2.00 B2112,2013-07-13 15:27:00,
2013-07-13 07:32:00,55.0,45.4,29.91,WNW,284,0.0,0.0,70,0.00,,,0.00,LWC V2.00 B2112,2013-07-13 15:32:00,
2013-07-13 07:37:00,55.4,46.2,29.92,WNW,284,0.0,0.0,71,0.00,,,0.00,LWC V2.00 B2112,2013-07-13 15:37:00,
2013-07-13 07:42:00,55.8,45.8,29.91,WNW,284,0.0,0.0,69,0.00,,,0.00,LWC V2.00 B2112,2013-07-13 15:42:00,
2013-07-13 07:47:00,56.1,46.8,29.91,WNW,284,0.0,0.0,71,0.00,,,0.00,LWC V2.00 B2112,2013-07-13 15:47:00,
2013-07-13 07:52:00,56.5,47.2,29.92,WNW,284,0.0,0.0,71,0.00,,,0.00,LWC V2.00 B2112,2013-07-13 15:52:00,
2013-07-13 07:57:00,56.9,46.8,29.91,WNW,284,0.0,0.0,69,0.00,,,0.00,LWC V2.00 B2112,2013-07-13 15:57:00,
2013-07-13 08:02:00,57.3,47.6,29.92,WNW,284,0.0,0.0,70,0.00,,,0.00,LWC V2.00 B2112,2013-07-13 16:02:00,
2013-07-13 08:07:00,57.7,46.8,29.92,WNW,284,0.0,0.0,67,0.00,,,0.00,LWC V2.00 B2112,2013-07-13 16:07:00,
2013-07-13 08:12:00,58.3,46.6,29.92,WNW,284,0.0,0.0,65,0.00,,,0.00,LWC V2.00 B2112,2013-07-13 16:12:00,
2013-07-13 08:17:00,58.9,46.7,29.92,WNW,284,0.0,0.0,64,0.00,,,0.00,LWC V2.00 B2112,2013-07-13 16:17:00,
2013-07-13 08:22:00,59.4,47.2,29.92,WNW,284,0.0,0.0,64,0.00,,,0.00,LWC V2.00 B2112,2013-07-13 16:22:00,
2013-07-13 08:27:00,60.4,46.4,29.92,WNW,284,0.0,0.0,60,0.00,,,0.00,LWC V2.00 B2112,2013-07-13 16:27:00,
2013-07-13 08:32:00,61.0,46.6,29.92,WNW,284,0.0,0.0,59,0.00,,,0.00,LWC V2.00 B2112,2013-07-13 16:32:00,
2013-07-13 08:37:00,61.4,45.6,29.92,WNW,284,0.0,0.0,56,0.00,,,0.00,LWC V2.00 B2112,2013-07-13 16:37:00,
2013-07-13 08:42:00,61.6,44.8,29.92,SW,236,0.0,2.0,54,0.00,,,0.00,LWC V2.00 B2112,2013-07-13 16:42:00,
2013-07-13 08:47:00,62.0,44.7,29.92,SW,214,0.0,0.0,53,0.00,,,0.00,LWC V2.00 B2112,2013-07-13 16:47:00,
2013-07-13 08:52:00,62.4,45.5,29.92,SSW,207,0.0,0.0,54,0.00,,,0.00,LWC V2.00 B2112,2013-07-13 16:52:00,
2013-07-13 08:57:00,62.6,46.2,29.92,SSW,206,0.0,0.0,55,0.00,,,0.00,LWC V2.00 B2112,2013-07-13 16:57:00,
2013-07-13 09:02:00,62.8,45.4,29.92,SSW,208,0.0,0.0,53,0.00,,,0.00,LWC V2.00 B2112,2013-07-13 17:02:00,
2013-07-13 09:07:00,62.9,45.5,29.92,SSW,206,0.0,0.0,53,0.00,,,0.00,LWC V2.00 B2112,2013-07-13 17:07:00,
2013-07-13 09:12:00,63.2,44.2,29.92,WNW,297,1.0,2.0,50,0.00,,,0.00,LWC V2.00 B2112,2013-07-13 17:12:00,
2013-07-13 09:17:00,63.8,45.3,29.92,WNW,296,0.0,0.0,51,0.00,,,0.00,LWC V2.00 B2112,2013-07-13 17:17:00,
2013-07-13 09:22:00,64.1,44.5,29.92,ESE,111,1.0,1.0,49,0.00,,,0.00,LWC V2.00 B2112,2013-07-13 17:22:00,
2013-07-13 09:27:00,64.6,44.5,29.92,SE,142,1.0,2.0,48,0.00,,,0.00,LWC V2.00 B2112,2013-07-13 17:27:00,
2013-07-13 09:32:00,65.0,43.1,29.92,East,98,0.0,2.0,45,0.00,,,0.00,LWC V2.00 B2112,2013-07-13 17:32:00,
2013-07-13 09:37:00,65.4,44.1,29.92,SW,221,0.0,0.0,46,0.00,,,0.00,LWC V2.00 B2112,2013-07-13 17:37:00,
2013-07-13 09:42:00,65.8,43.9,29.92,SSE,156,0.0,1.0,45,0.00,,,0.00,LWC V2.00 B2112,2013-07-13 17:42:00,
2013-07-13 09:47:00,66.1,43.5,29.92,SSE,156,0.0,0.0,44,0.00,,,0.00,LWC V2.00 B2112,2013-07-13 17:47:00,
2013-07-13 09:52:00,66.6,42.2,29.92,NW,314,0.0,1.0,41,0.00,,,0.00,LWC V2.00 B2112,2013-07-13 17:52:00,
2013-07-13 09:57:00,66.9,45.4,29.92,WSW,257,0.0,0.0,46,0.00,,,0.00,LWC V2.00 B2112,2013-07-13 17:57:00,
2013-07-13 10:02:00,67.5,45.4,29.92,ESE,102,0.0,1.0,45,0.00,,,0.00,LWC V2.00 B2112,2013-07-13 18:02:00,
2013-07-13 10:07:00,68.4,44.4,29.92,SE,139,0.0,1.0,42,0.00,,,0.00,LWC V2.00 B2112,2013-07-13 18:07:00,
2013-07-13 10:12:00,68.9,41.5,29.92,East,88,0.0,1.0,37,0.00,,,0.00,LWC V2.00 B2112,2013-07-13 18:12:00,
2013-07-13 10:17:00,69.1,43.1,29.92,NNE,32,1.0,1.0,39,0.00,,,0.00,LWC V2.00 B2112,2013-07-13 18:17:00,
2013-07-13 10:22:00,69.4,42.7,29.92,SSW,213,0.0,2.0,38,0.00,,,0.00,LWC V2.00 B2112,2013-07-13 18:22:00,
2013-07-13 10:27:00,70.1,43.3,29.92,SSW,211,0.0,0.0,38,0.00,,,0.00,LWC V2.00 B2112,2013-07-13 18:27:00,
2013-07-13 10:32:00,71.0,43.4,29.92,ESE,111,0.0,0.0,37,0.00,,,0.00,LWC V2.00 B2112,2013-07-13 18:32:00,
2013-07-13 10:37:00,71.2,40.6,29.92,East,89,0.0,3.0,33,0.00,,,0.00,LWC V2.00 B2112,2013-07-13 18:37:00,
2013-07-13 10:42:00,72.0,43.6,29.92,South,172,1.0,1.0,36,0.00,,,0.00,LWC V2.00 B2112,2013-07-13 18:42:00,
2013-07-13 10:47:00,73.4,42.5,29.92,SSE,156,0.0,1.0,33,0.00,,,0.00,LWC V2.00 B2112,2013-07-13 18:47:00,
2013-07-13 10:52:00,74.2,44.0,29.92,SSW,209,0.0,2.0,34,0.00,,,0.00,LWC V2.00 B2112,2013-07-13 18:52:00,
2013-07-13 10:57:00,74.9,45.4,29.92,SSE,160,1.0,1.0,35,0.00,,,0.00,LWC V2.00 B2112,2013-07-13 18:57:00,
2013-07-13 11:02:00,75.0,42.3,29.92,NW,311,1.0,2.0,31,0.00,,,0.00,LWC V2.00 B2112,2013-07-13 19:02:00,
2013-07-13 11:07:00,74.0,43.1,29.92,SE,138,1.0,1.0,33,0.00,,,0.00,LWC V2.00 B2112,2013-07-13 19:07:00,
2013-07-13 11:12:00,74.0,42.3,29.92,West,267,0.0,1.0,32,0.00,,,0.00,LWC V2.00 B2112,2013-07-13 19:12:00,
2013-07-13 11:17:00,74.7,45.2,29.92,East,101,0.0,1.0,35,0.00,,,0.00,LWC V2.00 B2112,2013-07-13 19:17:00,
2013-07-13 11:22:00,74.6,45.1,29.92,ESE,105,2.0,2.0,35,0.00,,,0.00,LWC V2.00 B2112,2013-07-13 19:22:00,
2013-07-13 11:27:00,74.8,41.3,29.92,SE,146,0.0,1.0,30,0.00,,,0.00,LWC V2.00 B2112,2013-07-13 19:27:00,
2013-07-13 11:32:00,74.7,42.9,29.92,SSW,201,0.0,2.0,32,0.00,,,0.00,LWC V2.00 B2112,2013-07-13 19:32:00,
2013-07-13 11:37:00,74.2,42.4,29.92,NNE,24,1.0,1.0,32,0.00,,,0.00,LWC V2.00 B2112,2013-07-13 19:37:00,
2013-07-13 11:42:00,74.5,44.3,29.92,ESE,117,1.0,2.0,34,0.00,,,0.00,LWC V2.00 B2112,2013-07-13 19:42:00,
2013-07-13 11:47:00,75.1,43.2,29.91,SE,134,2.0,3.0,32,0.00,,,0.00,LWC V2.00 B2112,2013-07-13 19:47:00,
2013-07-13 11:52:00,75.2,43.3,29.91,ESE,103,0.0,1.0,32,0.00,,,0.00,LWC V2.00 B2112,2013-07-13 19:52:00,
2013-07-13 11:57:00,75.9,44.7,29.91,SW,219,1.0,1.0,33,0.00,,,0.00,LWC V2.00 B2112,2013-07-13 19:57:00,
2013-07-13 12:02:00,76.9,43.9,29.91,SW,219,0.0,1.0,31,0.00,,,0.00,LWC V2.00 B2112,2013-07-13 20:02:00,
2013-07-13 12:07:00,77.0,44.0,29.91,East,100,0.0,1.0,31,0.00,,,0.00,LWC V2.00 B2112,2013-07-13 20:07:00,
2013-07-13 12:12:00,77.0,44.0,29.91,SSE,167,1.0,2.0,31,0.00,,,0.00,LWC V2.00 B2112,2013-07-13 20:12:00,
2013-07-13 12:17:00,77.1,42.4,29.91,NNW,342,1.0,1.0,29,0.00,,,0.00,LWC V2.00 B2112,2013-07-13 20:17:00,
2013-07-13 12:22:00,76.9,42.2,29.91,ESE,116,1.0,3.0,29,0.00,,,0.00,LWC V2.00 B2112,2013-07-13 20:22:00,
2013-07-13 12:27:00,77.2,40.6,29.91,SW,219,0.0,2.0,27,0.00,,,0.00,LWC V2.00 B2112,2013-07-13 20:27:00,
2013-07-13 12:32:00,77.8,42.1,29.91,SSE,158,1.0,2.0,28,0.00,,,0.00,LWC V2.00 B2112,2013-07-13 20:32:00,
2013-07-13 12:37:00,78.2,42.4,29.91,East,84,1.0,2.0,28,0.00,,,0.00,LWC V2.00 B2112,2013-07-13 20:37:00,
2013-07-13 12:42:00,77.9,43.1,29.91,SW,232,1.0,2.0,29,0.00,,,0.00,LWC V2.00 B2112,2013-07-13 20:42:00,
2013-07-13 12:47:00,78.1,43.2,29.91,SSE,149,1.0,1.0,29,0.00,,,0.00,LWC V2.00 B2112,2013-07-13 20:47:00,
2013-07-13 12:52:00,78.3,41.5,29.91,East,100,2.0,2.0,27,0.00,,,0.00,LWC V2.00 B2112,2013-07-13 20:52:00,
2013-07-13 12:57:00,77.9,41.2,29.91,WNW,287,1.0,2.0,27,0.00,,,0.00,LWC V2.00 B2112,2013-07-13 20:57:00,
2013-07-13 13:02:00,78.0,43.1,29.91,ESE,117,2.0,2.0,29,0.00,,,0.00,LWC V2.00 B2112,2013-07-13 21:02:00,
2013-07-13 13:07:00,78.5,42.7,29.91,West,261,1.0,1.0,28,0.00,,,0.00,LWC V2.00 B2112,2013-07-13 21:07:00,
2013-07-13 13:12:00,79.1,43.2,29.91,SE,137,1.0,1.0,28,0.00,,,0.00,LWC V2.00 B2112,2013-07-13 21:12:00,
2013-07-13 13:17:00,79.4,43.4,29.91,ENE,67,1.0,2.0,28,0.00,,,0.00,LWC V2.00 B2112,2013-07-13 21:17:00,
2013-07-13 13:22:00,78.7,44.6,29.91,ESE,107,0.0,2.0,30,0.00,,,0.00,LWC V2.00 B2112,2013-07-13 21:22:00,
2013-07-13 13:27:00,79.0,44.0,29.90,SSW,198,1.0,4.0,29,0.00,,,0.00,LWC V2.00 B2112,2013-07-13 21:27:00,
2013-07-13 13:32:00,79.7,44.6,29.90,SE,138,1.0,2.0,29,0.00,,,0.00,LWC V2.00 B2112,2013-07-13 21:32:00,
2013-07-13 13:37:00,79.0,42.1,29.90,SW,223,1.0,2.0,27,0.00,,,0.00,LWC V2.00 B2112,2013-07-13 21:37:00,
2013-07-13 13:42:00,78.0,43.1,29.90,NW,307,1.0,3.0,29,0.00,,,0.00,LWC V2.00 B2112,2013-07-13 21:42:00,
2013-07-13 13:47:00,78.3,45.2,29.90,SE,134,1.0,2.0,31,0.00,,,0.00,LWC V2.00 B2112,2013-07-13 21:47:00,
2013-07-13 13:52:00,79.5,45.3,29.90,WSW,254,0.0,3.0,30,0.00,,,0.00,LWC V2.00 B2112,2013-07-13 21:52:00,
2013-07-13 13:57:00,80.4,44.3,29.90,SSW,209,1.0,2.0,28,0.00,,,0.00,LWC V2.00 B2112,2013-07-13 21:57:00,
2013-07-13 14:02:00,80.3,46.0,29.90,ESE,103,1.0,2.0,30,0.00,,,0.00,LWC V2.00 B2112,2013-07-13 22:02:00,
2013-07-13 14:07:00,81.0,46.6,29.90,SE,128,0.0,2.0,30,0.00,,,0.00,LWC V2.00 B2112,2013-07-13 22:07:00,
2013-07-13 14:12:00,80.9,47.4,29.90,South,175,0.0,1.0,31,0.00,,,0.00,LWC V2.00 B2112,2013-07-13 22:12:00,
2013-07-13 14:17:00,80.9,44.7,29.90,ESE,119,1.0,1.0,28,0.00,,,0.00,LWC V2.00 B2112,2013-07-13 22:17:00,
2013-07-13 14:22:00,81.3,46.0,29.89,East,101,0.0,2.0,29,0.00,,,0.00,LWC V2.00 B2112,2013-07-13 22:22:00,
2013-07-13 14:27:00,82.0,41.6,29.90,SSE,148,1.0,2.0,24,0.00,,,0.00,LWC V2.00 B2112,2013-07-13 22:27:00,
2013-07-13 14:32:00,81.8,41.5,29.90,SW,219,0.0,2.0,24,0.00,,,0.00,LWC V2.00 B2112,2013-07-13 22:32:00,
2013-07-13 14:37:00,81.8,42.5,29.90,SSW,202,0.0,2.0,25,0.00,,,0.00,LWC V2.00 B2112,2013-07-13 22:37:00,
2013-07-13 14:42:00,81.5,42.3,29.89,West,279,1.0,1.0,25,0.00,,,0.00,LWC V2.00 B2112,2013-07-13 22:42:00,
2013-07-13 14:47:00,80.5,40.4,29.89,SW,225,0.0,2.0,24,0.00,,,0.00,LWC V2.00 B2112,2013-07-13 22:47:00,
2013-07-13 14:57:00,81.3,46.0,29.89,ESE,103,1.0,2.0,29,0.00,,,0.00,LWC V2.00 B2112,2013-07-13 22:57:00,
2013-07-13 15:02:00,81.3,44.1,29.89,East,99,0.0,0.0,27,0.00,,,0.00,LWC V2.00 B2112,2013-07-13 23:02:00,
2013-07-13 15:07:00,81.7,45.4,29.89,ESE,122,0.0,0.0,28,0.00,,,0.00,LWC V2.00 B2112,2013-07-13 23:07:00,
2013-07-13 15:12:00,81.8,41.5,29.89,SE,138,2.0,2.0,24,0.00,,,0.00,LWC V2.00 B2112,2013-07-13 23:12:00,
2013-07-13 15:17:00,81.7,43.5,29.89,ESE,112,0.0,0.0,26,0.00,,,0.00,LWC V2.00 B2112,2013-07-13 23:17:00,
2013-07-13 15:22:00,81.4,41.1,29.89,East,89,2.0,2.0,24,0.00,,,0.00,LWC V2.00 B2112,2013-07-13 23:22:00,
2013-07-13 15:27:00,80.8,41.7,29.89,East,93,0.0,2.0,25,0.00,,,0.00,LWC V2.00 B2112,2013-07-13 23:27:00,
2013-07-13 15:32:00,80.5,42.4,29.89,SE,136,0.0,1.0,26,0.00,,,0.00,LWC V2.00 B2112,2013-07-13 23:32:00,
2013-07-13 15:37:00,80.4,41.3,29.89,ESE,106,2.0,3.0,25,0.00,,,0.00,LWC V2.00 B2112,2013-07-13 23:37:00,
2013-07-13 15:42:00,80.3,40.2,29.89,WSW,240,1.0,4.0,24,0.00,,,0.00,LWC V2.00 B2112,2013-07-13 23:42:00,
2013-07-13 15:47:00,80.3,40.2,29.89,ESE,119,0.0,1.0,24,0.00,,,0.00,LWC V2.00 B2112,2013-07-13 23:47:00,
2013-07-13 15:52:00,80.5,41.4,29.89,SE,137,0.0,0.0,25,0.00,,,0.00,LWC V2.00 B2112,2013-07-13 23:52:00,
2013-07-13 15:57:00,80.8,43.7,29.88,SE,142,1.0,1.0,27,0.00,,,0.00,LWC V2.00 B2112,2013-07-13 23:57:00,
2013-07-13 16:02:00,80.8,42.7,29.88,East,97,2.0,5.0,26,0.00,,,0.00,LWC V2.00 B2112,2013-07-14 00:02:00,
2013-07-13 16:07:00,81.0,41.8,29.89,SW,230,0.0,1.0,25,0.00,,,0.00,LWC V2.00 B2112,2013-07-14 00:07:00,
2013-07-13 16:12:00,81.5,43.3,29.88,West,279,1.0,1.0,26,0.00,,,0.00,LWC V2.00 B2112,2013-07-14 00:12:00,
2013-07-13 16:17:00,81.5,43.3,29.88,West,260,1.0,2.0,26,0.00,,,0.00,LWC V2.00 B2112,2013-07-14 00:17:00,
2013-07-13 16:22:00,82.1,42.8,29.88,West,281,1.0,2.0,25,0.00,,,0.00,LWC V2.00 B2112,2013-07-14 00:22:00,
2013-07-13 16:27:00,82.7,42.2,29.88,NNE,30,2.0,2.0,24,0.00,,,0.00,LWC V2.00 B2112,2013-07-14 00:27:00,
2013-07-13 16:32:00,82.0,40.5,29.88,WNW,294,1.0,2.0,23,0.00,,,0.00,LWC V2.00 B2112,2013-07-14 00:32:00,
2013-07-13 16:37:00,82.0,42.7,29.88,ESE,115,0.0,1.0,25,0.00,,,0.00,LWC V2.00 B2112,2013-07-14 00:37:00,
2013-07-13 16:42:00,82.5,43.1,29.88,SE,130,0.0,1.0,25,0.00,,,0.00,LWC V2.00 B2112,2013-07-14 00:42:00,
2013-07-13 16:47:00,82.4,42.0,29.88,ESE,117,3.0,3.0,24,0.00,,,0.00,LWC V2.00 B2112,2013-07-14 00:47:00,
2013-07-13 16:52:00,82.3,42.9,29.87,ESE,117,2.0,2.0,25,0.00,,,0.00,LWC V2.00 B2112,2013-07-14 00:52:00,
2013-07-13 16:57:00,82.3,41.9,29.88,WSW,257,0.0,1.0,24,0.00,,,0.00,LWC V2.00 B2112,2013-07-14 00:57:00,
2013-07-13 17:02:00,82.6,43.2,29.87,East,98,1.0,2.0,25,0.00,,,0.00,LWC V2.00 B2112,2013-07-14 01:02:00,
2013-07-13 17:07:00,83.0,43.5,29.87,ESE,117,0.0,1.0,25,0.00,,,0.00,LWC V2.00 B2112,2013-07-14 01:07:00,
2013-07-13 17:12:00,83.9,47.3,29.88,ESE,109,2.0,2.0,28,0.00,,,0.00,LWC V2.00 B2112,2013-07-14 01:12:00,
2013-07-13 17:17:00,83.0,40.2,29.87,ESE,108,1.0,5.0,22,0.00,,,0.00,LWC V2.00 B2112,2013-07-14 01:17:00,
2013-07-13 17:22:00,82.2,41.8,29.87,ESE,112,1.0,1.0,24,0.00,,,0.00,LWC V2.00 B2112,2013-07-14 01:22:00,
2013-07-13 17:27:00,81.6,41.3,29.87,West,261,0.0,0.0,24,0.00,,,0.00,LWC V2.00 B2112,2013-07-14 01:27:00,
2013-07-13 17:32:00,81.6,43.4,29.87,ESE,108,0.0,2.0,26,0.00,,,0.00,LWC V2.00 B2112,2013-07-14 01:32:00,
2013-07-13 17:37:00,82.1,43.8,29.87,ESE,117,1.0,1.0,26,0.00,,,0.00,LWC V2.00 B2112,2013-07-14 01:37:00,
2013-07-13 17:42:00,81.9,40.4,29.87,East,86,1.0,2.0,23,0.00,,,0.00,LWC V2.00 B2112,2013-07-14 01:42:00,
2013-07-13 17:47:00,81.7,41.4,29.87,East,87,0.0,0.0,24,0.00,,,0.00,LWC V2.00 B2112,2013-07-14 01:47:00,
2013-07-13 17:52:00,81.6,41.3,29.87,WSW,246,1.0,2.0,24,0.00,,,0.00,LWC V2.00 B2112,2013-07-14 01:52:00,
2013-07-13 17:57:00,80.8,42.7,29.87,WSW,246,1.0,1.0,26,0.00,,,0.00,LWC V2.00 B2112,2013-07-14 01:57:00,
2013-07-13 18:02:00,80.5,42.4,29.87,East,100,2.0,5.0,26,0.00,,,0.00,LWC V2.00 B2112,2013-07-14 02:02:00,
2013-07-13 18:07:00,80.3,42.3,29.87,ESE,104,1.0,2.0,26,0.00,,,0.00,LWC V2.00 B2112,2013-07-14 02:07:00,
2013-07-13 18:12:00,80.1,40.0,29.87,SW,217,0.0,0.0,24,0.00,,,0.00,LWC V2.00 B2112,2013-07-14 02:12:00,
2013-07-13 18:17:00,80.0,41.0,29.87,SW,226,0.0,1.0,25,0.00,,,0.00,LWC V2.00 B2112,2013-07-14 02:17:00,
2013-07-13 18:22:00,79.8,39.8,29.87,SW,226,0.0,0.0,24,0.00,,,0.00,LWC V2.00 B2112,2013-07-14 02:22:00,
2013-07-13 18:27:00,79.7,43.7,29.87,East,94,2.0,2.0,28,0.00,,,0.00,LWC V2.00 B2112,2013-07-14 02:27:00,
2013-07-13 18:32:00,79.6,46.3,29.87,ESE,105,0.0,0.0,31,0.00,,,0.00,LWC V2.00 B2112,2013-07-14 02:32:00,
2013-07-13 18:37:00,79.6,41.7,29.87,ESE,104,1.0,2.0,26,0.00,,,0.00,LWC V2.00 B2112,2013-07-14 02:37:00,
2013-07-13 18:42:00,79.4,40.5,29.87,East,95,1.0,2.0,25,0.00,,,0.00,LWC V2.00 B2112,2013-07-14 02:42:00,
2013-07-13 18:47:00,79.5,41.6,29.87,East,101,0.0,2.0,26,0.00,,,0.00,LWC V2.00 B2112,2013-07-14 02:47:00,
2013-07-13 18:52:00,79.6,40.7,29.87,ESE,108,1.0,1.0,25,0.00,,,0.00,LWC V2.00 B2112,2013-07-14 02:52:00,
2013-07-13 18:57:00,79.6,41.7,29.87,South,191,0.0,1.0,26,0.00,,,0.00,LWC V2.00 B2112,2013-07-14 02:57:00,
2013-07-13 19:02:00,80.0,41.0,29.87,ESE,109,2.0,2.0,25,0.00,,,0.00,LWC V2.00 B2112,2013-07-14 03:02:00,
2013-07-13 19:07:00,80.1,43.1,29.87,SSW,209,0.0,0.0,27,0.00,,,0.00,LWC V2.00 B2112,2013-07-14 03:07:00,
2013-07-13 19:12:00,80.4,44.3,29.87,SSW,209,0.0,0.0,28,0.00,,,0.00,LWC V2.00 B2112,2013-07-14 03:12:00,
2013-07-13 19:17:00,80.7,42.6,29.87,SSW,213,1.0,1.0,26,0.00,,,0.00,LWC V2.00 B2112,2013-07-14 03:17:00,
2013-07-13 19:22:00,80.5,47.1,29.87,East,92,0.0,1.0,31,0.00,,,0.00,LWC V2.00 B2112,2013-07-14 03:22:00,
2013-07-13 19:27:00,80.7,44.5,29.87,East,93,0.0,1.0,28,0.00,,,0.00,LWC V2.00 B2112,2013-07-14 03:27:00,
2013-07-13 19:32:00,81.0,46.6,29.87,East,93,0.0,0.0,30,0.00,,,0.00,LWC V2.00 B2112,2013-07-14 03:32:00,
2013-07-13 19:37:00,80.0,45.8,29.87,East,93,0.0,0.0,30,0.00,,,0.00,LWC V2.00 B2112,2013-07-14 03:37:00,
2013-07-13 19:42:00,78.2,44.2,29.87,East,92,1.0,1.0,30,0.00,,,0.00,LWC V2.00 B2112,2013-07-14 03:42:00,
2013-07-13 19:47:00,76.7,45.4,29.87,NW,304,0.0,0.0,33,0.00,,,0.00,LWC V2.00 B2112,2013-07-14 03:47:00,
2013-07-13 19:52:00,76.6,47.6,29.87,NNW,327,0.0,1.0,36,0.00,,,0.00,LWC V2.00 B2112,2013-07-14 03:52:00,
2013-07-13 19:57:00,75.7,47.6,29.87,NNW,327,0.0,0.0,37,0.00,,,0.00,LWC V2.00 B2112,2013-07-14 03:57:00,
2013-07-13 20:02:00,74.7,48.1,29.87,NNW,327,0.0,0.0,39,0.00,,,0.00,LWC V2.00 B2112,2013-07-14 04:02:00,
2013-07-13 20:07:00,74.2,48.3,29.87,SW,225,0.0,0.0,40,0.00,,,0.00,LWC V2.00 B2112,2013-07-14 04:07:00,
2013-07-13 20:12:00,73.7,46.5,29.87,ESE,107,2.0,2.0,38,0.00,,,0.00,LWC V2.00 B2112,2013-07-14 04:12:00,
2013-07-13 20:17:00,73.6,47.1,29.87,WNW,294,1.0,1.0,39,0.00,,,0.00,LWC V2.00 B2112,2013-07-14 04:17:00,
2013-07-13 20:22:00,73.0,47.9,29.87,WNW,295,0.0,1.0,41,0.00,,,0.00,LWC V2.00 B2112,2013-07-14 04:22:00,
2013-07-13 20:27:00,72.7,47.6,29.87,WNW,295,0.0,2.0,41,0.00,,,0.00,LWC V2.00 B2112,2013-07-14 04:27:00,
2013-07-13 20:32:00,72.3,47.3,29.87,WNW,295,1.0,1.0,41,0.00,,,0.00,LWC V2.00 B2112,2013-07-14 04:32:00,
2013-07-13 20:37:00,71.8,48.1,29.87,WNW,295,1.0,1.0,43,0.00,,,0.00,LWC V2.00 B2112,2013-07-14 04:37:00,
2013-07-13 20:42:00,71.6,46.0,29.87,WNW,294,1.0,1.0,40,0.00,,,0.00,LWC V2.00 B2112,2013-07-14 04:42:00,
2013-07-13 20:47:00,71.4,47.7,29.87,WNW,298,0.0,1.0,43,0.00,,,0.00,LWC V2.00 B2112,2013-07-14 04:47:00,
2013-07-13 20:52:00,71.2,45.6,29.87,WNW,298,1.0,2.0,40,0.00,,,0.00,LWC V2.00 B2112,2013-07-14 04:52:00,
2013-07-13 20:57:00,70.9,47.3,29.87,WNW,298,1.0,1.0,43,0.00,,,0.00,LWC V2.00 B2112,2013-07-14 04:57:00,
2013-07-13 21:02:00,70.8,48.4,29.87,WNW,298,1.0,1.0,45,0.00,,,0.00,LWC V2.00 B2112,2013-07-14 05:02:00,
2013-07-13 21:07:00,70.7,47.7,29.87,WNW,297,0.0,1.0,44,0.00,,,0.00,LWC V2.00 B2112,2013-07-14 05:07:00,
2013-07-13 21:12:00,70.3,46.7,29.87,WNW,298,1.0,1.0,43,0.00,,,0.00,LWC V2.00 B2112,2013-07-14 05:12:00,
2013-07-13 21:17:00,70.0,49.9,29.87,WNW,300,1.0,1.0,49,0.00,,,0.00,LWC V2.00 B2112,2013-07-14 05:17:00,
2013-07-13 21:22:00,69.8,48.6,29.87,WNW,300,1.0,1.0,47,0.00,,,0.00,LWC V2.00 B2112,2013-07-14 05:22:00,
2013-07-13 21:27:00,69.9,46.4,29.87,WNW,300,1.0,2.0,43,0.00,,,0.00,LWC V2.00 B2112,2013-07-14 05:27:00,
2013-07-13 21:32:00,69.8,47.5,29.87,WNW,294,1.0,1.0,45,0.00,,,0.00,LWC V2.00 B2112,2013-07-14 05:32:00,
2013-07-13 21:37:00,69.7,46.8,29.87,WNW,295,1.0,1.0,44,0.00,,,0.00,LWC V2.00 B2112,2013-07-14 05:37:00,
2013-07-13 21:42:00,69.8,45.7,29.87,WNW,295,1.0,1.0,42,0.00,,,0.00,LWC V2.00 B2112,2013-07-14 05:42:00,
2013-07-13 21:47:00,69.7,47.4,29.87,WNW,294,2.0,2.0,45,0.00,,,0.00,LWC V2.00 B2112,2013-07-14 05:47:00,
2013-07-13 21:52:00,69.5,47.8,29.87,WNW,295,1.0,1.0,46,0.00,,,0.00,LWC V2.00 B2112,2013-07-14 05:52:00,
2013-07-13 21:57:00,69.2,45.7,29.87,WNW,294,1.0,1.0,43,0.00,,,0.00,LWC V2.00 B2112,2013-07-14 05:57:00,
2013-07-13 22:02:00,69.1,47.4,29.87,WNW,294,1.0,1.0,46,0.00,,,0.00,LWC V2.00 B2112,2013-07-14 06:02:00,
2013-07-13 22:07:00,68.8,47.7,29.88,WNW,295,1.0,1.0,47,0.00,,,0.00,LWC V2.00 B2112,2013-07-14 06:07:00,
2013-07-13 22:12:00,68.6,47.6,29.88,WNW,297,1.0,2.0,47,0.00,,,0.00,LWC V2.00 B2112,2013-07-14 06:12:00,
2013-07-13 22:17:00,68.6,46.4,29.88,WNW,294,0.0,2.0,45,0.00,,,0.00,LWC V2.00 B2112,2013-07-14 06:17:00,
2013-07-13 22:22:00,68.5,46.3,29.88,WNW,295,1.0,2.0,45,0.00,,,0.00,LWC V2.00 B2112,2013-07-14 06:22:00,
2013-07-13 22:27:00,68.5,46.9,29.88,WNW,292,1.0,2.0,46,0.00,,,0.00,LWC V2.00 B2112,2013-07-14 06:27:00,
2013-07-13 22:32:00,68.5,47.5,29.88,WNW,292,1.0,1.0,47,0.00,,,0.00,LWC V2.00 B2112,2013-07-14 06:32:00,
2013-07-13 22:37:00,67.9,45.8,29.88,WNW,292,1.0,1.0,45,0.00,,,0.00,LWC V2.00 B2112,2013-07-14 06:37:00,
2013-07-13 22:42:00,67.3,49.6,29.88,WNW,292,0.0,0.0,53,0.00,,,0.00,LWC V2.00 B2112,2013-07-14 06:42:00,
2013-07-13 22:47:00,66.9,48.2,29.88,WNW,292,0.0,1.0,51,0.00,,,0.00,LWC V2.00 B2112,2013-07-14 06:47:00,
2013-07-13 22:52:00,66.6,47.9,29.88,WNW,292,0.0,0.0,51,0.00,,,0.00,LWC V2.00 B2112,2013-07-14 06:52:00,
2013-07-13 22:57:00,66.4,48.2,29.88,WNW,292,1.0,1.0,52,0.00,,,0.00,LWC V2.00 B2112,2013-07-14 06:57:00,
2013-07-13 23:02:00,66.1,49.0,29.88,WNW,292,1.0,1.0,54,0.00,,,0.00,LWC V2.00 B2112,2013-07-14 07:02:00,
2013-07-13 23:07:00,65.7,49.1,29.89,WNW,292,0.0,0.0,55,0.00,,,0.00,LWC V2.00 B2112,2013-07-14 07:07:00,
2013-07-13 23:12:00,65.4,48.8,29.89,WNW,292,1.0,1.0,55,0.00,,,0.00,LWC V2.00 B2112,2013-07-14 07:12:00,
2013-07-13 23:17:00,65.1,47.0,29.89,WNW,292,0.0,0.0,52,0.00,,,0.00,LWC V2.00 B2112,2013-07-14 07:17:00,
2013-07-13 23:22:00,65.0,47.4,29.89,WNW,292,0.0,0.0,53,0.00,,,0.00,LWC V2.00 B2112,2013-07-14 07:22:00,
2013-07-13 23:27:00,64.8,48.2,29.89,WNW,292,0.0,1.0,55,0.00,,,0.00,LWC V2.00 B2112,2013-07-14 07:27:00,
2013-07-13 23:32:00,64.6,47.6,29.89,WNW,292,0.0,0.0,54,0.00,,,0.00,LWC V2.00 B2112,2013-07-14 07:32:00,
2013-07-13 23:37:00,64.3,47.8,29.89,WNW,292,0.0,0.0,55,0.00,,,0.00,LWC V2.00 B2112,2013-07-14 07:37:00,
2013-07-13 23:42:00,64.0,48.9,29.89,WNW,292,0.0,0.0,58,0.00,,,0.00,LWC V2.00 B2112,2013-07-14 07:42:00,
2013-07-13 23:47:00,63.8,48.3,29.89,WNW,292,0.0,0.0,57,0.00,,,0.00,LWC V2.00 B2112,2013-07-14 07:47:00,
2013-07-13 23:52:00,63.5,48.9,29.89,WNW,292,0.0,0.0,59,0.00,,,0.00,LWC V2.00 B2112,2013-07-14 07:52:00,
2013-07-13 23:57:00,63.2,49.5,29.90,WNW,292,0.0,0.0,61,0.00,,,0.00,LWC V2.00 B2112,2013-07-14 07:57:00,